CZ-3B DEB, 40852

Orbit data source: Space-Track

CZ-3B DEB, 40852 is space debris in HEO originally from a launch on Mon, 19 Dec 2011 UTC launched from the Xichang Space Center, China (XSC). Debris objects in space refer to the collection of defunct objects orbiting the Earth. Examples of debris include non-operational satellites, rocket bodies, and fragments generated from explosions, collisions, or faulty payload assembly.

Loading next visibility...
Identifier
40852, 2011-077AH
Orbit
HEO
Last TLE update
6 days ago
Origin
Manufacturer
CALT
Mission
Spacecraft
Bus & Motor
Unknown
Mass
Unknown
Launch date (UTC)
2011-12-19 (13 years ago)
Launch vehicle
Unknown
Launch site
Xichang Space Center, China (XSC)
Object type
Payload
Rocket body
Debris
Shape & HBR
Unknown
Radar Cross Section
Medium (>0.1 m² and <1 m²)

Expand to show TLE details & history

TLE from 6 days ago
0 CZ-3B DEB
1 40852U 11077AH  25123.35807031 -.00000035  00000-0  00000-0 0  9994
2 40852  25.9370 143.1259 7380652 130.9967 320.9883  1.90683413 78539
Epoch: 2025-05-03T08:35Z
Definitive object data (Epoch: 2025-05-03T08:35:37.274Z)
Latitude
-0.00002°
Longitude
152.82672°
Altitude
17,783.303 km
Speed
4.299 km/s
True Right ascension
09h 32m 56s
True Declination
0° 00' 00"
Sunlit
Object was in daylight at TLE epoch
Visualization TLE readout
Latitude
-25.62399°
Longitude
51.60847°
Altitude
16,496.65 km
Speed
4.51 km/s
Apparent Right ascension
02h 36m 33s
Apparent Declination
-28° 46' 45"
Sunlit
Object is in daylight
Visualization observer readout
Local Sidereal Time
13:47:44
Azimuth
314.248° NW
Elevation
-75.012°
Doppler factor
1
Orbital elements
Apogee altitude
41,373.148 km
Perigee altitude
818.212 km
Semi-major axis
27,473.817 km
Eccentricity
0.7380652
Inclination
25.937°
RAAN
143.1259°
Arg. of periapsis
130.9967°
True anomaly
229.07785°
Mean anomaly
320.9883°
Eccentric anomaly
279.2502°
Mean motion
0.47661 °/min
BSTAR
Unknown
Orbital period
755.33 mins
Loading maneuver chart data...
Loading SW <> Apogee altitude chart data...
Loading historical data...
Loading historical data...
Loading historical data...
Loading historical data...
Loading historical data...
Loading historical data...
Loading historical data...

CZ-3B DEB Visibility forecast

Observer location: undefined°, undefined°

Span
Click to sort rows by Start time (UTC) header in descending order
Start Az.
Max El. time (UTC)
Max El. Az.
Max El.
End time (UTC)
End Az.
646 mins2025-05-09 18:38:02.423Z170.014° S2025-05-10 05:15:02.423Z181.483° SSW36.622°2025-05-10 05:24:02.423Z114.404° SE
|